Location: 22
(39.7117°N, 89.5929°W)
Time: 05:35:24
(UTC-05:00)

Vanguard 1 Rocket - Pass Details

Date: 09 February 2023
Orbit: 652 x 4223 km, 34.3° (Epoch: 26 March)

Event Time Altitude Azimuth Distance (km) Brightness Sun altitude
Rises 13:58:08 0° 271° (W) 4,729 11.4 30.4°
Reaches altitude 10° 14:00:38 10° 269° (W) 4,068 11.2 30.2°
Maximum altitude 14:12:15 67° 190° (S) 2,878 10.9 29.0°
Drops below altitude 10° 14:34:19 10° 114° (ESE) 7,146 11.9 26.5°
Sets 14:40:34 0° 113° (ESE) 8,386 12.1 25.7°
